Location: Sydney
(46.1500°N, 60.1670°W)
Time: 16:14:14
(UTC-03:00)

Iridium 90 - Visible Passes

Search period start: 22 May 2017 00:00
Search period end: 01 June 2017 00:00
Orbit: 747 x 750 km, 86.4° (Epoch: 21 May)

Date Brightness Start Highest point End Pass type
(mag) Time Alt. Az. Time Alt. Az. Time Alt. Az.
22 May 8.1 21:59:07 10° NW 22:02:33 19° WNW 22:05:59 10° WSW visible
23 May 7.0 21:16:09 10° NNW 21:20:49 38° W 21:25:29 10° SSW visible
24 May 8.6 22:17:11 10° WNW 22:18:06 10° WNW 22:19:00 10° W visible
25 May 7.9 21:32:40 10° NNW 21:36:32 22° W 21:40:23 10° SW visible
27 May 8.4 21:49:53 10° NW 21:52:07 13° WNW 21:54:21 10° W visible
30 May 8.3 21:23:09 10° NW 21:26:07 16° WNW 21:29:05 10° WSW visible
